KAFJ Airport (Washington County) Information

FAA: AFJ - ICAO: KAFJ

KAFJ Airport Location

State Pennsylvania
County Washington
City Washington
KAFJ Airport is 3 miles southwest of Washington, PA.
Latitude 40-08-11.3000N
Longitude 080-17-24.7000W
Elevation 1,183ft

KAFJ Airport METARs

METAR KAFJ 071856Z AUTO 28012KT 10SM BKN015 BKN020 OVC032 14/12 A3016 RMK AO2 SLP211 T01440122
Altimeter 30.16"
Temperature 14.4°C (57.9°F)
Wind 280° at 12KT
Clouds broken at 1,500ft broken at 2,000ft overcast at 3,200ft
Visibility 10.0mi
Time observed: 2022-12-07T18:56:00Z

KAFJ Airport Details

Status Operational
Activation October 1947
Ownership Public
Usage Public
Chart DETROIT
ATC on-site No
Beacon schedule sunset-sunrise
Beacon color clear green

KAFJ Airport Contacts

Owner WASHINGTON COUNTY
Owner address 100 WEST BEAU ST, WASHINGTON, PA 15301
Owner phone 724-228-6811
Manager RON COOLBAUGH
Manager address 5950 SR 6, TUNKHANNOCK, PA 18657
Manager phone 570-996-1139

KAFJ Airport (Washington County) Radio Frequencies

KAFJ (Airport) Radio Frequencies

UNICOM 122.975
Common traffic advisory frequency (CTAF) 122.975